TimeEDT,TemperatureF,Dew PointF,Humidity,Sea Level PressureIn,VisibilityMPH,Wind Direction,Wind SpeedMPH,Gust SpeedMPH,PrecipitationIn,Events,Conditions,WindDirDegrees,DateUTC
12:00 AM,55.4,51.8,88,30.21,10.0,WSW,8.1,-,N/A,,Clear,250,2012-10-05 04:00:00
12:20 AM,55.4,51.8,88,30.21,10.0,WSW,8.1,-,N/A,,Clear,250,2012-10-05 04:20:00
12:45 AM,55.4,51.8,88,30.22,10.0,WSW,8.1,-,N/A,,Clear,250,2012-10-05 04:45:00
1:05 AM,55.4,53.6,94,30.21,10.0,WSW,10.4,-,N/A,,Clear,250,2012-10-05 05:05:00
1:25 AM,55.4,53.6,94,30.22,10.0,WSW,8.1,16.1,N/A,,Clear,250,2012-10-05 05:25:00
1:50 AM,55.4,53.6,94,30.22,10.0,WSW,9.2,16.1,N/A,,Clear,240,2012-10-05 05:50:00
2:10 AM,55.4,53.6,94,30.22,10.0,WSW,11.5,-,N/A,,Clear,240,2012-10-05 06:10:00
2:50 AM,53.6,53.6,100,30.21,10.0,WSW,9.2,18.4,N/A,,Clear,250,2012-10-05 06:50:00
3:15 AM,53.6,53.6,100,30.21,10.0,WSW,10.4,-,N/A,,Clear,250,2012-10-05 07:15:00
3:55 AM,53.6,53.6,100,30.20,10.0,West,11.5,16.1,N/A,,Clear,260,2012-10-05 07:55:00
4:15 AM,53.6,53.6,100,30.20,10.0,WSW,9.2,-,N/A,,Clear,250,2012-10-05 08:15:00
4:40 AM,53.6,53.6,100,30.20,10.0,WSW,10.4,16.1,N/A,,Clear,250,2012-10-05 08:40:00
5:00 AM,53.6,53.6,100,30.20,10.0,WSW,10.4,16.1,N/A,,Clear,250,2012-10-05 09:00:00
5:20 AM,53.6,53.6,100,30.20,10.0,WSW,9.2,-,N/A,,Clear,250,2012-10-05 09:20:00
5:40 AM,53.6,53.6,100,30.20,10.0,West,8.1,-,N/A,,Clear,260,2012-10-05 09:40:00
6:05 AM,53.6,53.6,100,30.19,10.0,WSW,8.1,-,N/A,,Clear,240,2012-10-05 10:05:00
6:25 AM,53.6,53.6,100,30.19,10.0,WSW,8.1,-,N/A,,Clear,250,2012-10-05 10:25:00
6:45 AM,53.6,53.6,100,30.20,10.0,WSW,8.1,-,N/A,,Clear,240,2012-10-05 10:45:00
7:05 AM,53.6,53.6,100,30.20,10.0,WSW,6.9,-,N/A,,Clear,240,2012-10-05 11:05:00
7:50 AM,53.6,53.6,100,30.22,10.0,WSW,8.1,-,N/A,,Clear,240,2012-10-05 11:50:00
8:10 AM,53.6,53.6,100,30.22,10.0,WSW,8.1,-,N/A,,Clear,240,2012-10-05 12:10:00
8:30 AM,55.4,53.6,94,30.22,10.0,WSW,10.4,-,N/A,,Clear,240,2012-10-05 12:30:00
8:55 AM,55.4,53.6,94,30.22,10.0,WSW,8.1,-,N/A,,Clear,240,2012-10-05 12:55:00
9:15 AM,57.2,53.6,88,30.22,10.0,WSW,6.9,16.1,N/A,,Clear,240,2012-10-05 13:15:00
9:35 AM,59.0,55.4,88,30.22,10.0,WSW,6.9,-,N/A,,Clear,250,2012-10-05 13:35:00
9:55 AM,59.0,55.4,88,30.22,10.0,WSW,9.2,-,N/A,,Clear,240,2012-10-05 13:55:00
10:20 AM,60.8,55.4,82,30.21,10.0,WSW,8.1,-,N/A,,Clear,250,2012-10-05 14:20:00
10:40 AM,60.8,55.4,82,30.20,10.0,WSW,9.2,18.4,N/A,,Clear,250,2012-10-05 14:40:00
11:00 AM,62.6,55.4,77,30.20,10.0,WSW,8.1,16.1,N/A,,Clear,240,2012-10-05 15:00:00
11:20 AM,62.6,55.4,77,30.19,10.0,West,9.2,-,N/A,,Clear,260,2012-10-05 15:20:00
11:45 AM,60.8,55.4,82,30.19,10.0,WSW,8.1,-,N/A,,Clear,250,2012-10-05 15:45:00
12:05 PM,62.6,55.4,77,30.18,10.0,WSW,9.2,-,N/A,,Clear,240,2012-10-05 16:05:00
12:50 PM,62.6,53.6,72,30.17,10.0,West,5.8,-,N/A,,Scattered Clouds,260,2012-10-05 16:50:00
1:10 PM,64.4,53.6,68,30.16,10.0,WSW,10.4,16.1,N/A,,Scattered Clouds,250,2012-10-05 17:10:00
1:30 PM,68.0,51.8,56,30.15,10.0,WSW,9.2,16.1,N/A,,Clear,250,2012-10-05 17:30:00
1:50 PM,68.0,51.8,56,30.14,10.0,West,10.4,16.1,N/A,,Scattered Clouds,270,2012-10-05 17:50:00
2:15 PM,68.0,51.8,56,30.14,10.0,SW,8.1,-,N/A,,Scattered Clouds,230,2012-10-05 18:15:00
2:35 PM,68.0,53.6,60,30.13,10.0,SW,9.2,-,N/A,,Scattered Clouds,230,2012-10-05 18:35:00
2:55 PM,66.2,51.8,60,30.13,10.0,WSW,6.9,-,N/A,,Scattered Clouds,250,2012-10-05 18:55:00
3:15 PM,64.4,53.6,68,30.13,10.0,West,10.4,-,N/A,,Mostly Cloudy,260,2012-10-05 19:15:00
3:40 PM,64.4,51.8,64,30.12,10.0,West,5.8,-,N/A,,Mostly Cloudy,260,2012-10-05 19:40:00
4:00 PM,64.4,51.8,64,30.12,10.0,WSW,6.9,-,N/A,,Mostly Cloudy,250,2012-10-05 20:00:00
4:20 PM,64.4,51.8,64,30.11,10.0,West,4.6,-,N/A,,Mostly Cloudy,260,2012-10-05 20:20:00
4:40 PM,64.4,51.8,64,30.11,10.0,West,5.8,-,N/A,,Scattered Clouds,260,2012-10-05 20:40:00
5:05 PM,66.2,51.8,60,30.09,10.0,West,5.8,-,N/A,,Scattered Clouds,260,2012-10-05 21:05:00
5:25 PM,64.4,51.8,64,30.08,10.0,WSW,6.9,-,N/A,,Clear,250,2012-10-05 21:25:00
5:45 PM,64.4,51.8,64,30.08,10.0,WSW,3.5,-,N/A,,Scattered Clouds,250,2012-10-05 21:45:00
6:05 PM,62.6,51.8,68,30.08,10.0,WSW,5.8,-,N/A,,Clear,240,2012-10-05 22:05:00
6:30 PM,62.6,51.8,68,30.08,10.0,SSW,3.5,-,N/A,,Clear,210,2012-10-05 22:30:00
6:50 PM,60.8,51.8,72,30.08,10.0,SW,4.6,-,N/A,,Clear,220,2012-10-05 22:50:00
7:10 PM,59.0,51.8,77,30.08,10.0,SW,5.8,-,N/A,,Clear,220,2012-10-05 23:10:00
7:55 PM,59.0,51.8,77,30.07,10.0,SSW,6.9,-,N/A,,Clear,200,2012-10-05 23:55:00
8:15 PM,57.2,53.6,88,30.07,10.0,SSW,6.9,-,N/A,,Clear,200,2012-10-06 00:15:00
8:35 PM,57.2,53.6,88,30.07,10.0,SSW,8.1,-,N/A,,Clear,210,2012-10-06 00:35:00
8:55 PM,55.4,51.8,88,30.07,10.0,SSW,6.9,-,N/A,,Clear,200,2012-10-06 00:55:00
9:20 PM,55.4,53.6,94,30.05,10.0,SSW,8.1,-,N/A,,Clear,200,2012-10-06 01:20:00
9:40 PM,55.4,51.8,88,30.04,10.0,SSW,9.2,-,N/A,,Clear,210,2012-10-06 01:40:00
10:00 PM,57.2,51.8,82,30.03,10.0,SSW,8.1,-,N/A,,Clear,200,2012-10-06 02:00:00
10:20 PM,57.2,51.8,82,30.03,10.0,SSW,10.4,-,N/A,,Clear,210,2012-10-06 02:20:00
10:45 PM,55.4,51.8,88,30.02,10.0,SSW,9.2,-,N/A,,Clear,200,2012-10-06 02:45:00
11:05 PM,55.4,51.8,88,30.02,10.0,SSW,8.1,-,N/A,,Clear,210,2012-10-06 03:05:00
11:25 PM,53.6,51.8,94,30.02,10.0,SSW,9.2,-,N/A,,Clear,210,2012-10-06 03:25:00